[[{"header":{"parameterUnit":"m.s-1","parameterCategory":1,"la1":30.2991,"la2":30.254,"lo1":-89.0895,"lo2":-89.0444,"dy":0.0017,"dx":0.0017,"nx":28,"ny":28,"refTime":"2025-03-27T09:00:00:Z","depth":0,"parameterNumber":2,"parameterNumberName":"U-component_of_WINDS"},"data":[0,0,0,0,0,0,0,0,0,0,0,0,0,0,0,0,0,0,0,0,0,0,0,0,0,0,0,0,0,0,0,0,0,0,0,0,0,0,0,0,0,0,0,0,0,0,0,0,0,0,0,0,0,0,0,0,0,0,-5.0435,-5.0436,0,-5.0538,-5.054,-5.0541,-5.0563,-5.0562,-5.0562,-5.0561,-5.0665,-5.0669,-5.0672,0,0,0,0,0,0,0,0,0,0,0,0,0,-5.0255,-5.0258,-5.0434,-5.0436,-5.0437,-5.0538,-5.054,-5.0541,-5.0563,-5.0562,-5.0561,-5.0561,-5.0664,-5.0668,-5.0672,0,0,0,0,0,0,0,0,0,0,0,0,0,-5.0343,-5.0259,-5.0434,-5.046,-5.0464,-5.0538,-5.054,-5.0541,-5.0563,-5.0562,-5.0561,-5.056,-5.0663,-5.0668,-5.0673,-5.0728,0,0,-5.0689,-5.0691,0,0,0,0,0,0,0,0,-5.0338,-5.035,-5.0455,-5.0459,-5.0463,-5.0537,-5.0515,-5.0604,-5.0564,-5.0525,-5.0561,-5.056,-5.0623,-5.0632,-5.0654,-5.0733,-5.0737,-5.0689,-5.0693,-5.0695,-5.0696,0,0,0,0,0,0,0,-5.0332,-5.0345,-5.0475,-5.0457,-5.0461,-5.0467,-5.0478,-5.0532,-5.0579,-5.0529,-5.0531,-5.0543,-5.0625,-5.0648,-5.0656,-5.0739,-5.0689,-5.0694,-5.0697,-5.0699,-5.0869,-5.0871,0,0,0,0,0,0,-5.0321,-5.034,-5.0472,-5.0479,-5.0396,-5.0471,-5.0484,-5.0514,-5.0579,-5.0588,-5.0544,-5.0543,-5.064,-5.065,-5.066,-5.0728,-5.0695,-5.07,-5.0703,-5.0868,-5.0869,-5.0871,0,0,0,0,0,0,-5.0317,-5.0333,-5.0468,-5.041,-5.0428,-5.0475,-5.0509,-5.0517,-5.054,-5.059,-5.0599,-5.0559,-5.064,-5.0653,-5.0711,-5.0732,-5.0702,-5.0707,-5.0866,-5.0868,-5.087,-5.0865,0,0,0,0,0,0,-5.0312,-5.0331,-5.0352,-5.041,-5.0431,-5.0517,-5.0511,-5.0519,-5.0549,-5.055,-5.0607,-5.0615,-5.064,-5.0703,-5.0716,-5.0739,-5.0711,-5.0864,-5.0867,-5.087,-5.0863,-5.0867,-5.0869,0,0,0,0,0,-5.0306,-5.0346,-5.0353,-5.0369,-5.0458,-5.0519,-5.053,-5.0558,-5.0551,-5.0572,-5.0605,-5.0613,-5.0729,-5.0709,-5.0724,-5.0748,-5.0863,-5.0866,-5.0869,-5.0862,-5.0866,-5.0869,0,0,0,0,0,0,-5.0288,-5.0354,-5.0363,-5.0424,-5.0466,-5.0522,-5.055,-5.0562,-5.0606,-5.0604,-5.0638,-5.065,-5.0707,-5.0734,-5.0711,-5.0805,-5.0795,-5.0802,-5.0785,-5.0789,-5.0792,-5.0783,-5.0715,0,0,0,0,0,-5.0292,-5.0336,-5.0391,-5.0439,-5.046,-5.0502,-5.0529,-5.0548,-5.0592,-5.0609,-5.0646,-5.0688,-5.0735,-5.0764,-5.0809,-5.0869,-5.0881,-5.0893,-5.0896,-5.0898,-5.0902,-5.0936,-5.0942,-5.0881,-5.0881,-5.0881,0,0,-5.0299,-5.0341,-5.0366,-5.0437,-5.0472,-5.0516,-5.0516,-5.0563,-5.0596,-5.0616,-5.0673,-5.0703,-5.0752,-5.0812,-5.084,-5.0836,-5.0923,-5.0902,-5.0904,-5.0907,-5.094,-5.0946,-5.0951,-5.0883,-5.0883,-5.0883,0,0,-5.0334,-5.0371,-5.0415,-5.045,-5.0503,-5.0531,-5.0542,-5.0598,-5.0618,-5.0676,-5.0693,-5.0733,-5.0811,-5.0846,-5.0874,-5.0926,-5.0934,-5.094,-5.0954,-5.0986,-5.0991,-5.0996,-5.1013,-5.1019,-5.0944,-5.0944,-5.0944,0,-5.0336,-5.0404,-5.0436,-5.0482,-5.0513,-5.0536,-5.058,-5.0613,-5.0677,-5.0698,-5.0694,-5.0793,-5.0828,-5.0896,-5.0909,-5.0932,-5.0944,-5.0931,-5.0988,-5.0993,-5.0997,-5.1014,-5.1021,-5.0944,-5.0944,-5.0944,-5.0944,0,-5.0403,-5.045,-5.048,-5.0542,-5.0577,-5.0622,-5.0661,-5.0692,-5.0709,-5.0737,-5.0797,-5.084,-5.0895,-5.0913,-5.0929,-5.0984,-5.098,-5.0982,-5.0972,-5.1003,-5.1019,-5.1026,-5.0944,-5.0944,-5.0944,-5.0944,0,0,-5.0427,-5.0509,-5.0519,-5.0548,-5.061,-5.0646,-5.0694,-5.0748,-5.0773,-5.0819,-5.0858,-5.0925,-5.0928,-5.096,-5.0981,-5.101,-5.1047,-5.1008,-5.101,-5.1012,-5.1109,-5.1106,-5.1113,-5.1055,-5.1056,-5.1057,-5.1104,0,-5.0469,-5.0553,-5.0585,-5.0654,-5.0698,-5.0721,-5.0762,-5.0804,-5.0833,-5.0874,-5.0906,-5.0952,-5.0953,-5.0972,-5.1002,-5.1036,-5.1066,-5.1033,-5.1091,-5.1092,-5.1075,-5.1121,-5.1118,-5.116,-5.1111,-5.1112,-5.1113,0,-5.0528,-5.0574,-5.0648,-5.0705,-5.0724,-5.076,-5.0813,-5.0853,-5.0901,-5.092,-5.0957,-5.0977,-5.1027,-5.1017,-5.1086,-5.1063,-5.1089,-5.1109,-5.1112,-5.1116,-5.1103,-5.1125,-5.1175,-5.118,-5.1124,-5.1123,-5.1122,0,-5.0536,-5.0617,-5.0672,-5.0696,-5.0765,-5.0789,-5.0819,-5.0867,-5.0898,-5.0944,-5.0965,-5.1016,-5.1044,-5.1084,-5.1117,-5.1106,-5.1183,-5.1175,-5.1199,-5.1198,-5.1212,-5.121,-5.1264,-5.1232,-5.1232,-5.1232,-5.1232,0,-5.0578,-5.0622,-5.0677,-5.071,-5.076,-5.0797,-5.0845,-5.0876,-5.0919,-5.0959,-5.0983,-5.102,-5.1062,-5.1105,-5.1131,-5.1184,-5.1197,-5.1213,-5.1219,-5.121,-5.1208,-5.1225,-5.1222,-5.1234,-5.1234,-5.1233,-5.1233,0,-5.0595,-5.0634,-5.0694,-5.0755,-5.0771,-5.0805,-5.0857,-5.089,-5.0921,-5.0971,-5.0985,-5.1033,-5.1085,-5.1122,-5.1189,-5.1207,-5.1263,-5.127,-5.1246,-5.1249,-5.127,-5.1267,-5.1336,-5.1346,-5.1309,-5.1309,-5.131,0,-5.0617,-5.0652,-5.0716,-5.0745,-5.0775,-5.0821,-5.0853,-5.0891,-5.0923,-5.0982,-5.1009,-5.1062,-5.1106,-5.1188,-5.1228,-5.128,-5.1287,-5.1308,-5.1295,-5.1284,-5.1285,-5.1282,-5.1285,-5.1308,-5.1309,-5.1309,-5.1309,0,-5.0654,-5.0672,-5.0717,-5.077,-5.0808,-5.0851,-5.0895,-5.0917,-5.0963,-5.0998,-5.1051,-5.1086,-5.1155,-5.1207,-5.1263,-5.1293,-5.1308,-5.1313,-5.1321,-5.1311,-5.1295,-5.1302,-5.1249,-5.1311,-5.1311,-5.1311,-5.131,-5.131,-5.0673,-5.0705,-5.0756,-5.0806,-5.0843,-5.0884,-5.0918,-5.0954,-5.0999,-5.1058,-5.1078,-5.1133,-5.1182,-5.1259,-5.129,-5.1334,-5.1333,-5.1345,-5.1348,-5.1349,-5.1348,-5.129,-5.1344,-5.1344,-5.1344,-5.1344,-5.1344,0,-5.071,-5.0744,-5.079,-5.085,-5.089,-5.0903,-5.0952,-5.0984,-5.1033,-5.1078,-5.1121,-5.1183,-5.1235,-5.1281,-5.1334,-5.136,-5.1369,-5.1373,-5.137,-5.1377,-5.1346,-5.1333,-5.1365,-5.1365,-5.1365,-5.1365,-5.1365,-5.1365,-5.0733,-5.0787,-5.0811,-5.0885,-5.0919,-5.0973,-5.1,-5.1038,-5.1074,-5.1142,-5.1185,-5.1215,-5.1261,-5.1318,-5.1366,-5.1379,-5.1396,-5.1399,-5.1412,-5.1382,-5.1379,-5.1377,-5.1364,-5.1403,-5.1403,-5.1439,-5.144,-5.144]},{"header":{"parameterUnit":"m.s-1","parameterCategory":1,"la1":30.2991,"la2":30.254,"lo1":-89.0895,"lo2":-89.0444,"dy":0.0017,"dx":0.0017,"nx":28,"ny":28,"refTime":"2025-03-27T09:00:00:Z","depth":0,"parameterNumber":3,"parameterNumberName":"V-component_of_WINDS"},"data":[0,0,0,0,0,0,0,0,0,0,0,0,0,0,0,0,0,0,0,0,0,0,0,0,0,0,0,0,0,0,0,0,0,0,0,0,0,0,0,0,0,0,0,0,0,0,0,0,0,0,0,0,0,0,0,0,0,0,4.3415,4.3416,0,4.35,4.3501,4.3502,4.3567,4.3567,4.3568,4.3568,4.3653,4.3655,4.3657,0,0,0,0,0,0,0,0,0,0,0,0,0,4.3308,4.331,4.3414,4.3416,4.3417,4.35,4.3501,4.3502,4.3567,4.3567,4.3568,4.3569,4.3653,4.3655,4.3657,0,0,0,0,0,0,0,0,0,0,0,0,0,4.337,4.331,4.3414,4.3459,4.3464,4.3499,4.3501,4.3502,4.3566,4.3567,4.3568,4.3569,4.3652,4.3655,4.3657,4.3655,0,0,4.3665,4.3666,0,0,0,0,0,0,0,0,4.3366,4.3374,4.3451,4.3456,4.3461,4.3524,4.3495,4.3553,4.3566,4.3527,4.3569,4.357,4.3609,4.3616,4.3629,4.3659,4.3662,4.3665,4.3667,4.3668,4.3669,0,0,0,0,0,0,0,4.3362,4.337,4.3448,4.3452,4.3459,4.3475,4.3485,4.3506,4.3562,4.3531,4.3536,4.3545,4.3612,4.3627,4.3632,4.3664,4.3665,4.3667,4.3669,4.367,4.3699,4.3699,0,0,0,0,0,0,4.3351,4.3366,4.3446,4.3451,4.3415,4.3476,4.3487,4.3503,4.3562,4.3572,4.3544,4.3548,4.3622,4.3629,4.3635,4.3639,4.3668,4.367,4.3672,4.37,4.3699,4.3698,0,0,0,0,0,0,4.3348,4.3357,4.3442,4.341,4.3422,4.3477,4.3494,4.3504,4.3519,4.3572,4.3583,4.3549,4.3623,4.3632,4.3651,4.3643,4.3671,4.3674,4.3701,4.37,4.3699,4.3644,0,0,0,0,0,0,4.3345,4.3356,4.3355,4.341,4.3424,4.3456,4.3494,4.3505,4.3523,4.3529,4.3579,4.3588,4.3624,4.3646,4.3653,4.3647,4.3676,4.3702,4.37,4.3699,4.3647,4.3642,4.3637,0,0,0,0,0,4.3341,4.3335,4.3355,4.3364,4.3424,4.3455,4.3463,4.3505,4.3522,4.3522,4.3558,4.3587,4.3642,4.3648,4.3656,4.365,4.3703,4.3701,4.3699,4.365,4.3643,4.3637,0,0,0,0,0,0,4.3277,4.3343,4.3365,4.3377,4.341,4.3466,4.3467,4.3496,4.3524,4.3528,4.3578,4.3589,4.3604,4.3629,4.3633,4.3653,4.3676,4.3676,4.3636,4.363,4.3625,4.3619,4.3678,0,0,0,0,0,4.3264,4.3284,4.3341,4.3346,4.3361,4.3411,4.3426,4.3456,4.3492,4.3506,4.3543,4.3576,4.3602,4.3617,4.3643,4.3651,4.3665,4.3652,4.3646,4.3642,4.3641,4.3651,4.3646,4.3693,4.3693,4.3693,0,0,4.3238,4.3277,4.3286,4.3334,4.3363,4.3383,4.3422,4.3441,4.3457,4.3509,4.353,4.3558,4.3599,4.3613,4.3621,4.3635,4.3632,4.364,4.3636,4.3638,4.3648,4.3644,4.364,4.3692,4.3692,4.3692,0,0,4.3201,4.3231,4.3241,4.327,4.3314,4.3348,4.335,4.3402,4.3424,4.3446,4.3486,4.3506,4.3547,4.3576,4.3596,4.3573,4.3603,4.358,4.3553,4.3562,4.3558,4.3555,4.355,4.3547,4.358,4.3579,4.3579,0,4.3162,4.3195,4.3241,4.3259,4.328,4.333,4.334,4.3366,4.3416,4.3429,4.3444,4.35,4.3531,4.3554,4.3549,4.3563,4.3568,4.3575,4.3555,4.3553,4.3551,4.3546,4.3543,4.3577,4.3577,4.3577,4.3577,0,4.3147,4.3169,4.3171,4.322,4.3242,4.3255,4.3304,4.332,4.3349,4.3382,4.3405,4.3444,4.3481,4.3488,4.3515,4.3516,4.3524,4.3546,4.3571,4.3543,4.3539,4.3537,4.3573,4.3574,4.3574,4.3575,0,0,4.307,4.3148,4.3148,4.3172,4.3226,4.3244,4.3261,4.3299,4.3312,4.3346,4.3362,4.3398,4.3421,4.3443,4.3474,4.3482,4.3465,4.3504,4.3505,4.3497,4.3471,4.3455,4.3452,4.3484,4.3484,4.3484,4.3469,0,4.3043,4.3077,4.3121,4.314,4.3163,4.3212,4.3227,4.3262,4.3294,4.3318,4.3352,4.3378,4.3404,4.3419,4.3428,4.3465,4.3461,4.3466,4.3501,4.3502,4.3491,4.345,4.3433,4.3416,4.3467,4.3467,4.3467,0,4.3016,4.3049,4.3071,4.3127,4.3138,4.3151,4.319,4.3212,4.3254,4.3276,4.3303,4.3338,4.336,4.3382,4.3413,4.3416,4.3433,4.3454,4.3454,4.346,4.3483,4.3456,4.3411,4.3409,4.3465,4.3465,4.3465,0,4.2961,4.3011,4.3032,4.3051,4.3115,4.3124,4.3151,4.3194,4.3214,4.3248,4.3263,4.3298,4.3318,4.3345,4.3389,4.3401,4.3417,4.3442,4.3438,4.3436,4.3439,4.3438,4.3398,4.3447,4.3447,4.3448,4.3448,0,4.2927,4.2939,4.3008,4.3021,4.3037,4.3087,4.3102,4.3133,4.3172,4.3192,4.3236,4.3254,4.331,4.3336,4.337,4.3392,4.34,4.342,4.3429,4.3417,4.3415,4.3429,4.3432,4.3447,4.3447,4.3447,4.3447,0,4.2867,4.2914,4.2941,4.3001,4.3016,4.3025,4.3077,4.3092,4.3127,4.3153,4.3161,4.3216,4.3249,4.3295,4.3341,4.3364,4.3382,4.3396,4.3369,4.3374,4.3368,4.3369,4.3337,4.3336,4.3384,4.3384,4.3383,0,4.2843,4.2854,4.2916,4.2934,4.296,4.2987,4.301,4.306,4.3082,4.3132,4.3141,4.3178,4.3209,4.3259,4.3303,4.3339,4.3355,4.3342,4.3361,4.3349,4.3357,4.3357,4.3359,4.3337,4.3336,4.3335,4.3335,0,4.2796,4.282,4.285,4.289,4.2915,4.2948,4.2984,4.2995,4.3054,4.3076,4.3111,4.3135,4.3184,4.322,4.3263,4.3291,4.3323,4.3329,4.333,4.3318,4.3303,4.3313,4.3358,4.3329,4.333,4.333,4.333,4.3331,4.2755,4.2769,4.2815,4.2849,4.2881,4.2914,4.2932,4.297,4.3,4.3045,4.3073,4.3107,4.3151,4.3212,4.324,4.3267,4.328,4.3281,4.3282,4.3282,4.3279,4.3297,4.3275,4.3275,4.3275,4.3275,4.3276,0,4.2712,4.2746,4.2776,4.2825,4.2852,4.2881,4.2923,4.2943,4.2973,4.3012,4.3043,4.3084,4.312,4.3168,4.3208,4.3221,4.3237,4.323,4.323,4.3236,4.3263,4.3259,4.3216,4.3216,4.3216,4.3216,4.3216,4.3216,4.2693,4.2718,4.2748,4.279,4.2823,4.2858,4.2879,4.291,4.2942,4.2987,4.3017,4.3049,4.3092,4.3136,4.3171,4.3184,4.3197,4.3186,4.3204,4.3229,4.3234,4.3239,4.3236,4.3188,4.3188,4.3175,4.3175,4.3175]}]]